Temp
24 23 23 22 22 21 20 20 19 18 18 17 18 18 18 17 18 17 16 16 15 15 15 15 15 15 15 16 15 15 15 15
22 20 20 20 19 19 19 19 18 17 18 18 19 19 18 18 17 16 15 15 14 14 15 15 15 15 15 15 15 15 15 15
22 20 19 18 18 17 18 17 17 17 17 16 16 16 16 16 16 16 15 14 14 14 14 14 14 14 14 14 14 14 14 14
22 20 18 18 17 17 17 16 16 15 15 16 16 17 17 17 16 15 14 13 13 13 13 13 13 13 13 13 13 13 14 14
21 20 18 17 16 16 16 16 16 15 14 15 15 15 15 14 14 14 13 13 12 12 12 12 12 12 12 12 13 12 13 13
20 18 17 16 15 15 15 16 15 14 14 13 14 14 14 14 13 13 12 13 12 12 11 10 10 11 11 10 10 10 11 11
18 18 18 17 16 15 15 15 15 13 13 12 12 11 12 12 12 12 12 12 12 12 11 9 9 8 8 8 8 8 8 8
19 18 18 17 16 15 15 15 15 14 13 13 12 12 12 12 11 11 10 10 10 10 8 8 8 7 6 6 5 4 3 3
19 18 17 17 15 15 14 14 14 14 13 13 12 11 11 11 10 9 9 9 9 8 7 6 6 6 5 4 4 3 2 1
19 18 17 16 16 15 14 14 14 14 13 12 11 11 10 9 9 8 8 7 7 6 6 6 5 4 4 3 3 2 1 2
18 17 16 15 15 15 13 13 13 12 12 11 10 9 9 8 7 7 7 6 6 5 5 4 3 2 2 2 2 2 2 2
17 16 15 14 14 14 13 12 12 11 11 10 9 9 8 7 7 6 6 5 4 3 2 1 1 1 1 1 1 2 2 3
17 16 15 15 14 13 12 11 10 10 9 9 8 8 7 7 6 5 5 4 2 1 1 1 2 2 2 2 3 3 3 3
17 16 15 14 13 12 11 10 10 9 9 8 8 7 6 6 5 3 2 2 2 2 3 3 3 3 3 3 3 2 2 2
16 15 14 13 11 10 10 9 8 7 7 7 7 6 5 4 3 3 3 4 4 3 3 2 2 2 2 2 1 1 1 1
14 13 13 11 10 9 8 7 7 7 7 7 6 5 3 2 2 2 3 3 3 3 2 2 2 2 2 -1 -1 -0 0 1
12 11 11 10 9 8 7 7 6 6 6 6 5 4 3 3 3 3 3 3 3 2 2 2 1 1 -1 -2 -3 -2 -1 -1
11 11 10 9 8 7 7 6 6 6 6 5 5 4 4 4 3 3 3 2 2 2 1 1 0 0 -2 -3 -4 -3 -2 -1
11 10 9 8 7 7 6 6 6 5 5 5 4 4 3 3 3 2 2 2 1 1 1 -0 -0 -1 -3 -5 -5 -4 -2 -2
Height
817 822 823 824 826 827 828 831 833 835 836 836 837 837 837 836 836 835 834 832 831 830 829 827 826 824 822 820 818 817 816 814
820 822 823 825 826 828 829 831 833 835 836 836 835 835 835 834 834 833 832 830 829 826 824 822 820 819 817 815 812 811 809 808
823 825 826 827 828 830 831 832 834 834 835 835 835 835 834 834 833 832 830 828 825 823 821 819 816 814 811 809 807 803 801 802
824 827 829 830 831 832 833 834 835 834 834 835 835 834 833 831 831 829 826 825 823 820 817 814 810 807 804 802 800 797 793 792
828 830 832 833 835 835 836 837 836 836 836 836 835 834 833 831 829 827 824 822 819 816 813 810 807 803 799 796 794 791 789 783
833 835 837 838 839 839 839 838 838 838 837 835 831 830 830 827 822 820 820 817 814 811 808 804 801 798 793 790 788 786 784 780
838 839 839 840 842 841 840 839 838 836 834 833 828 827 828 823 819 818 815 812 808 806 803 800 796 793 790 788 785 783 782 780
839 840 840 841 840 840 839 837 834 833 832 829 829 826 824 820 817 815 813 809 805 802 799 796 793 792 790 787 785 784 783 783
839 840 840 840 840 838 837 835 832 831 829 828 824 821 819 818 816 814 811 806 801 798 795 793 792 790 787 787 786 784 783 782
838 839 839 838 837 836 835 831 829 827 826 824 822 821 819 817 814 811 806 802 798 796 796 794 791 789 787 787 785 784 783 781
838 838 839 838 836 834 833 832 830 827 825 824 821 819 816 814 811 806 802 798 796 795 794 793 791 789 788 786 784 782 781 779
838 838 839 837 835 834 832 831 829 826 824 822 819 816 814 811 808 805 802 799 797 795 795 793 792 790 787 786 785 783 781 778
835 835 835 833 833 831 832 830 828 825 823 820 817 814 811 808 805 803 802 800 799 795 794 793 791 788 785 784 781 780 778 775
831 831 831 832 831 831 831 828 826 823 819 815 812 810 809 806 804 803 800 798 796 793 792 790 787 785 783 781 779 777 775 772
829 830 830 831 832 831 829 827 824 820 817 813 809 807 807 805 802 802 799 796 793 790 789 788 785 783 781 779 777 774 771 769
829 831 830 831 830 829 826 824 821 817 814 810 808 806 806 803 800 800 797 794 792 789 787 785 783 780 778 776 774 771 767 764
831 831 830 831 830 827 823 820 817 815 812 809 807 806 804 801 799 796 795 793 790 787 784 782 780 777 774 773 771 767 763 759
832 830 830 830 828 824 821 817 814 812 810 808 806 805 802 799 796 794 793 790 787 784 782 779 777 775 771 770 767 763 759 754
829 827 827 827 824 822 818 814 811 810 808 806 806 804 801 797 794 792 790 788 785 782 779 777 774 772 769 766 763 758 754 750
Wind_Speed
8 7 8 9 9 10 10 9 7 5 5 5 6 6 7 7 8 8 10 11 11 13 16 20 19 20 21 21 22 21 21 21
5 6 6 3 3 2 1 3 1 2 4 5 6 6 8 9 10 12 11 11 12 13 16 19 20 22 24 25 25 25 25 24
15 15 14 12 10 8 6 4 4 3 3 3 5 8 9 10 8 12 13 15 17 18 19 20 21 23 24 25 25 27 28 26
12 15 15 14 14 11 9 9 10 10 8 6 6 6 9 11 17 19 20 21 19 19 19 20 21 21 23 24 24 26 28 28
11 13 16 16 16 15 14 12 10 10 9 7 9 9 12 13 15 18 21 21 21 21 21 21 22 21 23 24 24 24 25 28
10 13 14 14 13 12 10 9 9 10 10 8 8 11 14 14 13 16 20 20 21 22 21 20 20 20 20 20 21 22 23 25
13 12 11 11 10 10 10 11 10 10 10 11 11 8 11 14 17 20 22 25 25 24 22 20 16 14 12 11 9 8 11 13
9 9 10 11 11 11 11 12 13 12 10 11 9 10 13 16 19 22 27 29 28 26 21 16 11 8 6 3 4 5 6 5
6 8 9 9 9 9 12 13 14 13 13 14 15 15 16 18 20 23 26 27 24 20 12 8 6 4 3 1 2 4 5 3
7 10 9 11 11 10 13 16 18 17 16 16 15 14 15 18 21 22 24 22 18 12 8 7 6 6 6 5 6 4 2 1
9 11 11 13 13 12 14 15 16 16 15 17 15 15 17 18 20 21 18 15 9 6 6 8 8 9 9 9 8 7 6 6
8 8 9 11 12 13 12 14 16 16 18 17 15 17 17 17 18 16 12 6 6 7 8 9 12 10 8 8 8 10 11 11
6 8 10 13 14 13 14 16 17 18 18 18 19 18 17 15 14 11 8 4 4 5 9 12 9 11 11 12 12 11 11 13
8 10 13 14 13 15 17 19 21 21 21 19 19 18 15 13 11 7 5 7 9 10 9 11 13 11 11 10 12 14 15 17
9 9 13 12 12 15 19 19 18 18 18 18 19 14 11 10 8 8 10 10 11 12 13 14 15 13 13 12 14 16 18 18
8 9 10 11 14 16 16 16 17 16 17 19 17 11 11 8 12 11 12 14 16 15 15 13 12 13 13 13 16 18 20 20
6 8 10 12 14 16 16 16 15 16 17 15 10 8 7 7 10 11 13 14 15 14 14 15 16 16 14 15 17 19 20 21
8 10 10 13 15 17 16 16 15 17 14 12 9 10 10 9 10 13 15 16 16 15 15 16 16 15 15 18 18 20 21 20
10 10 13 14 16 16 16 16 14 15 13 12 10 11 10 11 13 14 16 15 16 16 16 15 16 17 17 16 20 20 20 21
Wind_Direction
200 237 252 262 265 259 252 228 223 240 254 275 278 275 275 282 284 286 296 295 292 288 287 284 283 279 276 272 270 270 265 269
60 25 9 341 349 336 189 212 244 267 280 294 288 292 288 291 298 307 313 312 311 305 296 290 284 277 275 273 269 265 264 261
70 68 65 62 60 60 68 75 56 37 353 328 312 306 311 317 324 328 327 327 324 316 302 293 287 285 279 273 269 266 264 259
50 51 51 56 55 56 65 71 69 56 45 24 358 335 327 334 331 329 328 328 322 315 307 298 289 283 280 277 272 267 266 263
49 50 53 56 59 65 65 59 48 37 27 15 6 353 337 333 329 323 321 321 316 312 307 300 293 288 284 281 277 272 269 265
57 65 67 62 52 45 40 29 21 14 6 0 359 339 321 311 317 318 312 312 313 310 306 300 294 291 289 285 284 279 273 271
78 76 65 55 42 29 18 10 4 352 350 344 360 344 322 329 333 323 320 319 316 312 310 305 300 300 302 307 309 311 299 286
61 40 25 22 15 8 360 352 347 345 344 344 333 330 331 336 333 330 326 320 314 310 309 304 303 313 326 349 23 28 33 30
26 12 5 358 347 344 342 341 334 334 332 329 334 336 335 332 328 323 317 311 307 306 298 290 294 294 287 319 330 307 317 350
360 352 347 336 332 326 333 333 329 326 323 321 317 315 318 317 317 316 315 309 305 299 289 294 312 340 321 318 310 291 298 227
340 337 341 338 334 323 327 328 320 316 314 317 312 310 314 313 316 318 316 311 302 294 327 339 6 8 345 329 326 320 294 286
320 315 319 324 324 324 326 331 332 330 326 319 312 312 313 316 318 319 328 344 7 20 17 355 342 346 332 317 312 308 301 297
324 322 320 331 331 339 337 340 337 334 327 320 316 316 318 321 327 326 326 329 346 334 331 323 309 302 291 286 292 290 288 292
324 322 329 333 342 343 336 334 330 326 322 319 320 319 314 317 320 308 303 291 292 299 298 306 316 312 306 300 299 299 299 297
318 324 329 337 337 331 329 331 331 327 326 324 322 313 312 307 299 298 299 307 311 314 313 312 304 301 303 303 309 306 301 297
313 328 321 323 329 328 329 327 329 330 326 326 326 321 301 316 335 324 314 313 317 315 310 308 304 302 306 314 314 308 302 298
313 292 310 322 326 327 330 328 326 328 328 333 338 343 328 329 325 326 328 323 320 316 310 305 304 305 299 313 317 308 301 297
312 312 327 324 329 329 328 327 327 328 323 326 324 322 324 332 332 329 326 320 316 312 309 308 307 307 303 314 316 309 301 295
306 312 315 325 327 328 326 325 324 324 315 313 310 324 324 323 324 324 321 317 314 312 312 312 309 309 316 316 315 309 301 297